User: anonymous   Login
Location: Pianadetto
(44.4000°N, 10.1000°E)
Time: 13:16:19
(UTC+00:00)
Language:

MOS 1 Rocket - Orbit

View from above orbital plane
View from above orbital plane
View from above satellite
View from above satellite

Ground track
Ground track

The orbit data is extracted from the following two-line orbital elements,

1 17528U 87018B   22227.37833576  .00000529  00000-0  12341-3 0  9994
2 17528  97.4648 355.5980 0151900 147.4040 213.6648 14.51348476852631
Epoch (UTC): 15 August 2022 09:04:48
Eccentricity: 0.0151900
inclination: 97.4648°
perigee height: 613 km
apogee height: 829 km
right ascension of ascending node: 355.5980°
argument of perigee: 147.4040°
revolutions per day: 14.51348476
mean anomaly at epoch: 213.6648°
orbit number at epoch: 85263

The dashed part of the orbit path shows where the satellite is in the earth's shadow,  

DLR